SCP
-0 -0 -0 -0 -0 0 0 -0 0 -0 -0 -0 -0 -0 0 0 0 0 0 0 0 0 0 0 0 0 0 0 0 0 0 0
-0 -0 -0 -0 0 0 0 0 -0 -0 -0 -0 0 0 0 0 0 0 0 0 0 0 0 0 0 0 0 0 0 0 0 0
-0 -0 -0 -0 -0 0 0 -0 -0 -0 -0 0 0 0 0 0 0 0 0 0 0 0 0 0 0 0 0 0 0 0 0 0
-0 -0 -0 -0 -0 -0 -0 -0 -0 -0 0 0 0 0 0 0 0 0 0 0 0 0 0 0 0 0 0 0 0 0 0 0
-0 -0 -0 -0 -0 -0 -0 -0 -0 -0 0 0 0 0 0 0 0 0 0 0 0 0 0 0 0 0 0 0 0 0 0 0
0 -0 -0 -0 -0 -0 -0 -0 -0 -0 0 0 0 0 0 0 0 0 0 0 0 0 0 0 0 0 0 0 0 0 0 0
0 -0 -0 -0 -0 -0 -0 -0 -0 0 0 0 0 0 0 0 0 0 0 0 1 0 0 0 0 0 0 0 0 0 0 0
-0 -0 -0 -0 -0 -0 0 0 0 0 0 0 0 0 0 0 0 0 1 1 0 0 0 0 0 0 0 0 0 0 0 0
-0 -0 0 -0 0 -0 0 0 0 0 0 0 0 0 0 0 0 1 0 1 1 1 0 0 0 1 0 0 0 0 0 0
-0 -0 -0 -0 0 -0 0 0 0 0 0 0 0 1 1 0 0 1 1 1 1 0 1 1 1 0 0 0 0 0 0 0
-0 -0 -0 -0 0 0 -0 0 0 0 0 0 0 1 1 1 1 2 2 2 1 1 2 0 0 0 0 0 0 0 0 0
0 0 -0 -0 -0 0 0 0 0 0 0 0 0 2 2 2 2 3 3 2 2 1 0 0 0 0 0 0 0 0 0 0
-0 0 0 -0 -0 0 0 0 0 0 1 1 1 2 2 2 2 3 2 2 1 0 0 0 0 0 0 0 0 0 0 0
-0 -0 0 0 -0 -0 0 0 0 1 1 1 2 3 3 2 2 2 1 2 0 0 0 0 0 0 0 0 0 0 0 0
0 0 0 1 1 0 1 1 1 1 2 2 4 4 3 3 1 2 2 1 0 0 0 0 0 0 0 0 0 0 0 0
1 2 1 1 1 3 2 2 2 2 3 3 6 4 4 2 1 2 1 0 0 0 0 0 0 0 0 0 0 0 0 0
3 2 4 3 3 3 4 3 2 2 3 4 4 4 3 2 1 1 1 0 0 0 0 0 0 0 0 0 0 0 0 0
5 5 5 6 7 4 6 5 6 7 8 7 4 3 2 1 1 0 0 0 0 0 0 0 0 0 0 0 0 0 0 0
4 5 5 6 8 7 6 6 6 5 6 6 3 2 1 1 0 0 0 0 0 0 0 0 0 0 0 0 0 0 0 0
Wind_Speed_500mb
36 37 39 35 33 29 26 24 20 17 13 9 7 6 5 3 3 4 6 5 5 6 5 4 7 10 14 17 19 22 25 29
36 35 38 34 32 29 25 23 21 17 13 9 7 6 6 5 7 8 7 7 8 9 8 9 12 16 20 23 26 29 34 39
43 29 30 35 31 28 24 23 20 16 13 11 9 8 7 8 10 11 11 11 11 12 13 15 18 22 26 28 32 37 43 46
34 27 31 36 33 28 25 22 20 18 16 12 11 8 10 11 12 13 14 14 15 16 18 21 24 27 30 34 38 42 42 45
36 25 26 35 31 28 26 24 21 19 16 13 13 12 12 13 13 14 18 18 20 21 24 25 28 31 35 40 40 32 43 52
32 29 24 29 29 28 23 24 20 19 18 18 16 15 14 13 7 20 16 17 23 28 29 28 31 36 38 31 22 34 43 42
30 38 29 35 28 23 29 19 15 20 21 20 20 13 12 2 9 9 19 25 32 35 29 30 29 26 26 23 23 42 40 41
31 32 37 34 34 26 33 31 20 14 9 9 6 12 11 10 24 26 29 24 22 15 24 17 26 27 17 35 48 52 55 39
32 29 28 34 32 30 26 21 20 9 19 13 20 22 29 23 28 25 19 23 14 25 10 24 19 35 50 52 57 57 33 43
36 36 33 37 42 43 33 28 27 20 27 20 25 26 23 20 16 24 23 31 30 31 29 25 39 48 51 55 55 31 40 45
40 42 38 39 39 45 51 33 35 30 27 33 25 31 32 29 26 29 27 38 36 37 40 43 45 51 52 44 32 38 45 45
41 41 45 40 38 40 46 48 42 35 39 26 29 26 32 29 27 32 29 35 23 33 42 46 48 52 38 34 40 42 45 46
46 49 49 43 41 41 42 42 42 37 26 30 25 31 41 35 29 38 31 24 31 41 44 44 46 27 29 41 46 46 40 43
50 51 56 50 47 42 46 39 34 26 36 29 31 32 35 31 27 28 13 29 46 40 42 37 19 33 44 49 40 39 46 54
56 57 52 54 52 48 41 40 32 32 35 33 31 30 36 38 36 36 22 38 41 36 35 22 33 46 48 36 40 41 42 46
63 60 55 57 52 41 49 46 43 37 38 25 33 37 48 41 35 35 22 34 32 25 18 37 45 38 37 37 37 38 39 36
65 62 64 51 54 56 47 42 30 36 37 32 38 44 47 40 27 27 22 27 22 21 32 30 34 41 45 30 36 34 33 40
52 52 53 63 50 53 51 45 46 35 37 42 44 46 37 28 28 22 26 19 26 31 21 33 37 35 29 35 23 29 33 29
50 45 45 50 59 49 57 45 52 53 46 38 39 31 26 22 21 15 19 23 31 31 27 26 23 33 30 27 21 25 30 34
Wind_Direction_500mb
148 162 159 157 157 158 155 150 151 160 159 161 175 175 190 200 242 267 272 219 214 233 242 276 311 321 323 325 324 325 324 323
148 175 161 161 161 162 160 161 167 171 173 180 193 210 224 234 256 277 266 238 239 246 264 285 299 307 315 319 321 321 319 318
162 180 173 167 169 167 170 172 176 183 189 198 211 227 243 254 263 280 265 255 257 268 278 286 296 306 312 315 316 317 316 316
165 190 181 177 176 175 180 185 187 194 204 212 227 240 254 262 276 282 274 268 270 276 283 289 296 303 305 309 312 315 319 321
154 174 179 182 184 187 190 196 197 206 217 228 238 249 261 268 280 303 282 271 274 280 283 289 295 299 302 306 316 326 328 327
167 165 160 173 189 191 202 202 209 221 228 236 243 252 262 279 283 324 284 281 291 292 289 291 297 306 314 317 335 323 315 321
179 167 169 171 187 176 200 227 253 243 236 240 243 255 278 67 293 239 276 289 305 296 290 293 293 312 326 314 307 307 306 309
178 177 174 174 176 180 195 220 263 236 275 276 278 250 294 244 243 265 282 287 289 311 321 302 310 325 299 267 286 305 303 302
175 181 176 165 178 189 199 195 223 209 225 240 253 233 228 225 211 222 234 277 289 315 264 284 296 259 266 281 307 311 313 289
172 180 188 191 202 193 182 205 198 208 206 214 228 252 254 234 225 243 245 235 233 239 240 265 258 278 294 304 312 310 288 292
172 177 184 196 210 195 193 187 205 201 214 216 222 240 259 230 224 234 253 252 252 258 263 266 286 305 309 311 321 299 296 302
170 180 191 194 214 202 199 199 203 214 213 230 212 236 241 254 225 231 228 252 272 255 269 286 307 310 316 317 293 291 291 296
180 188 192 191 215 207 211 209 211 205 217 211 228 229 245 252 230 251 240 270 250 260 285 303 313 318 292 282 291 296 310 298
191 197 196 189 211 217 208 219 220 210 218 210 223 229 250 258 233 253 239 242 257 280 296 307 301 273 287 300 309 306 297 298
197 206 207 199 194 225 230 223 224 210 229 217 226 222 242 238 245 260 242 261 276 286 302 291 282 287 301 312 303 305 309 309
205 203 212 209 207 205 220 232 212 221 218 217 218 223 233 242 263 268 246 271 293 305 306 275 295 295 298 310 315 305 312 319
200 207 209 210 215 212 216 220 220 214 219 210 225 229 242 257 246 262 260 263 285 276 276 299 280 285 303 311 302 314 318 317
194 200 209 213 216 221 215 217 213 206 208 204 218 233 253 234 238 249 270 267 261 269 284 273 281 294 295 300 321 307 311 311
203 209 217 223 214 221 219 213 217 208 203 207 235 256 246 240 244 254 254 259 279 291 293 284 273 283 294 295 309 301 292 309
Wind_Speed_850mb
36 37 39 35 33 29 26 24 20 17 13 9 7 6 5 3 3 4 6 5 5 6 5 4 7 10 14 17 19 22 25 29
36 35 38 34 32 29 25 23 21 17 13 9 7 6 6 5 7 8 7 7 8 9 8 9 12 16 20 23 26 29 34 39
43 29 30 35 31 28 24 23 20 16 13 11 9 8 7 8 10 11 11 11 11 12 13 15 18 22 26 28 32 37 43 46
34 27 31 36 33 28 25 22 20 18 16 12 11 8 10 11 12 13 14 14 15 16 18 21 24 27 30 34 38 42 42 45
36 25 26 35 31 28 26 24 21 19 16 13 13 12 12 13 13 14 18 18 20 21 24 25 28 31 35 40 40 32 43 52
32 29 24 29 29 28 23 24 20 19 18 18 16 15 14 13 7 20 16 17 23 28 29 28 31 36 38 31 22 34 43 42
30 38 29 35 28 23 29 19 15 20 21 20 20 13 12 2 9 9 19 25 32 35 29 30 29 26 26 23 23 42 40 41
31 32 37 34 34 26 33 31 20 14 9 9 6 12 11 10 24 26 29 24 22 15 24 17 26 27 17 35 48 52 55 39
32 29 28 34 32 30 26 21 20 9 19 13 20 22 29 23 28 25 19 23 14 25 10 24 19 35 50 52 57 57 33 43
36 36 33 37 42 43 33 28 27 20 27 20 25 26 23 20 16 24 23 31 30 31 29 25 39 48 51 55 55 31 40 45
40 42 38 39 39 45 51 33 35 30 27 33 25 31 32 29 26 29 27 38 36 37 40 43 45 51 52 44 32 38 45 45
41 41 45 40 38 40 46 48 42 35 39 26 29 26 32 29 27 32 29 35 23 33 42 46 48 52 38 34 40 42 45 46
46 49 49 43 41 41 42 42 42 37 26 30 25 31 41 35 29 38 31 24 31 41 44 44 46 27 29 41 46 46 40 43
50 51 56 50 47 42 46 39 34 26 36 29 31 32 35 31 27 28 13 29 46 40 42 37 19 33 44 49 40 39 46 54
56 57 52 54 52 48 41 40 32 32 35 33 31 30 36 38 36 36 22 38 41 36 35 22 33 46 48 36 40 41 42 46
63 60 55 57 52 41 49 46 43 37 38 25 33 37 48 41 35 35 22 34 32 25 18 37 45 38 37 37 37 38 39 36
65 62 64 51 54 56 47 42 30 36 37 32 38 44 47 40 27 27 22 27 22 21 32 30 34 41 45 30 36 34 33 40
52 52 53 63 50 53 51 45 46 35 37 42 44 46 37 28 28 22 26 19 26 31 21 33 37 35 29 35 23 29 33 29
50 45 45 50 59 49 57 45 52 53 46 38 39 31 26 22 21 15 19 23 31 31 27 26 23 33 30 27 21 25 30 34
Wind_Direction_850mb
148 162 159 157 157 158 155 150 151 160 159 161 175 175 190 200 242 267 272 219 214 233 242 276 311 321 323 325 324 325 324 323
148 175 161 161 161 162 160 161 167 171 173 180 193 210 224 234 256 277 266 238 239 246 264 285 299 307 315 319 321 321 319 318
162 180 173 167 169 167 170 172 176 183 189 198 211 227 243 254 263 280 265 255 257 268 278 286 296 306 312 315 316 317 316 316
165 190 181 177 176 175 180 185 187 194 204 212 227 240 254 262 276 282 274 268 270 276 283 289 296 303 305 309 312 315 319 321
154 174 179 182 184 187 190 196 197 206 217 228 238 249 261 268 280 303 282 271 274 280 283 289 295 299 302 306 316 326 328 327
167 165 160 173 189 191 202 202 209 221 228 236 243 252 262 279 283 324 284 281 291 292 289 291 297 306 314 317 335 323 315 321
179 167 169 171 187 176 200 227 253 243 236 240 243 255 278 67 293 239 276 289 305 296 290 293 293 312 326 314 307 307 306 309
178 177 174 174 176 180 195 220 263 236 275 276 278 250 294 244 243 265 282 287 289 311 321 302 310 325 299 267 286 305 303 302
175 181 176 165 178 189 199 195 223 209 225 240 253 233 228 225 211 222 234 277 289 315 264 284 296 259 266 281 307 311 313 289
172 180 188 191 202 193 182 205 198 208 206 214 228 252 254 234 225 243 245 235 233 239 240 265 258 278 294 304 312 310 288 292
172 177 184 196 210 195 193 187 205 201 214 216 222 240 259 230 224 234 253 252 252 258 263 266 286 305 309 311 321 299 296 302
170 180 191 194 214 202 199 199 203 214 213 230 212 236 241 254 225 231 228 252 272 255 269 286 307 310 316 317 293 291 291 296
180 188 192 191 215 207 211 209 211 205 217 211 228 229 245 252 230 251 240 270 250 260 285 303 313 318 292 282 291 296 310 298
191 197 196 189 211 217 208 219 220 210 218 210 223 229 250 258 233 253 239 242 257 280 296 307 301 273 287 300 309 306 297 298
197 206 207 199 194 225 230 223 224 210 229 217 226 222 242 238 245 260 242 261 276 286 302 291 282 287 301 312 303 305 309 309
205 203 212 209 207 205 220 232 212 221 218 217 218 223 233 242 263 268 246 271 293 305 306 275 295 295 298 310 315 305 312 319
200 207 209 210 215 212 216 220 220 214 219 210 225 229 242 257 246 262 260 263 285 276 276 299 280 285 303 311 302 314 318 317
194 200 209 213 216 221 215 217 213 206 208 204 218 233 253 234 238 249 270 267 261 269 284 273 281 294 295 300 321 307 311 311
203 209 217 223 214 221 219 213 217 208 203 207 235 256 246 240 244 254 254 259 279 291 293 284 273 283 294 295 309 301 292 309